QPF
0.00 0.00 0.00 0.00 0.00 0.00 0.00 0.00 0.00 0.00 0.00 0.00 0.00 0.00 0.00 0.00 0.00 0.00 0.00 0.00 0.00 0.00 0.00 0.00 0.00 0.00 0.00 0.00 0.00 0.00 0.00 0.00 0.00 0.00 0.00 0.00 0.00 0.00 0.00 0.00 0.00 0.00 0.00 0.00 0.00
0.00 0.00 0.00 0.00 0.00 0.00 0.00 0.01 0.00 0.01 0.01 0.01 0.01 0.00 0.00 0.00 0.00 0.00 0.00 0.00 0.00 0.00 0.00 0.00 0.00 0.00 0.00 0.00 0.00 0.00 0.00 0.00 0.00 0.00 0.00 0.00 0.00 0.00 0.00 0.00 0.00 0.00 0.00 0.00 0.00
0.00 0.00 0.00 0.00 0.00 0.00 0.01 0.01 0.01 0.01 0.01 0.01 0.01 0.00 0.00 0.00 0.00 0.00 0.00 0.00 0.00 0.00 0.00 0.00 0.00 0.00 0.00 0.00 0.00 0.00 0.00 0.00 0.00 0.00 0.00 0.00 0.00 0.00 0.00 0.00 0.00 0.00 0.00 0.00 0.00
0.00 0.00 0.00 0.00 0.00 0.00 0.01 0.01 0.01 0.00 0.00 0.00 0.01 0.00 0.00 0.00 0.00 0.00 0.00 0.00 0.00 0.00 0.00 0.00 0.00 0.00 0.00 0.00 0.00 0.00 0.00 0.00 0.00 0.00 0.00 0.00 0.00 0.00 0.00 0.00 0.00 0.00 0.00 0.00 0.00
0.00 0.00 0.00 0.00 0.00 0.00 0.00 0.00 0.00 0.00 0.00 0.00 0.00 0.01 0.00 0.00 0.00 0.00 0.00 0.00 0.00 0.00 0.00 0.00 0.00 0.00 0.00 0.00 0.00 0.00 0.00 0.00 0.00 0.00 0.00 0.00 0.00 0.00 0.00 0.00 0.00 0.00 0.00 0.00 0.00
0.00 0.00 0.00 0.00 0.00 0.00 0.00 0.00 0.00 0.00 0.00 0.00 0.01 0.00 0.00 0.00 0.00 0.00 0.00 0.00 0.00 0.00 0.00 0.00 0.00 0.00 0.00 0.00 0.00 0.00 0.00 0.00 0.00 0.00 0.00 0.00 0.00 0.00 0.00 0.00 0.00 0.00 0.00 0.00 0.00
0.00 0.00 0.00 0.00 0.00 0.00 0.00 0.00 0.00 0.00 0.00 0.00 0.00 0.00 0.00 0.00 0.00 0.00 0.00 0.00 0.00 0.00 0.00 0.00 0.00 0.00 0.00 0.00 0.00 0.00 0.00 0.00 0.00 0.00 0.00 0.00 0.00 0.00 0.00 0.00 0.00 0.00 0.00 0.00 0.00
0.00 0.00 0.00 0.00 0.00 0.00 0.00 0.00 0.00 0.00 0.00 0.00 0.00 0.00 0.00 0.00 0.00 0.00 0.00 0.00 0.00 0.00 0.00 0.00 0.00 0.00 0.00 0.00 0.00 0.00 0.00 0.00 0.00 0.00 0.00 0.00 0.00 0.00 0.00 0.00 0.00 0.00 0.00 0.00 0.00
0.00 0.00 0.00 0.00 0.00 0.00 0.00 0.00 0.00 0.00 0.00 0.00 0.00 0.00 0.00 0.00 0.00 0.00 0.00 0.00 0.00 0.00 0.00 0.00 0.00 0.00 0.00 0.00 0.00 0.00 0.00 0.00 0.00 0.00 0.00 0.00 0.00 0.00 0.00 0.00 0.00 0.00 0.00 0.00 0.00
0.00 0.00 0.00 0.00 0.00 0.00 0.00 0.00 0.00 0.00 0.00 0.00 0.00 0.00 0.00 0.00 0.00 0.00 0.00 0.00 0.00 0.00 0.00 0.00 0.00 0.00 0.00 0.00 0.00 0.00 0.00 0.00 0.00 0.00 0.00 0.00 0.00 0.00 0.00 0.00 0.00 0.00 0.00 0.00 0.00
0.00 0.00 0.00 0.00 0.00 0.00 0.00 0.00 0.00 0.00 0.00 0.00 0.00 0.00 0.00 0.00 0.00 0.00 0.00 0.00 0.00 0.00 0.01 0.04 0.00 0.00 0.00 0.00 0.00 0.00 0.00 0.00 0.00 0.00 0.00 0.00 0.00 0.00 0.00 0.00 0.00 0.00 0.00 0.00 0.00
0.00 0.00 0.00 0.00 0.00 0.00 0.00 0.00 0.00 0.00 0.00 0.00 0.00 0.00 0.00 0.00 0.00 0.00 0.00 0.00 0.00 0.01 0.04 0.02 0.00 0.00 0.01 0.01 0.01 0.01 0.00 0.00 0.00 0.00 0.00 0.00 0.00 0.00 0.00 0.00 0.00 0.00 0.00 0.00 0.00
0.00 0.00 0.00 0.00 0.00 0.00 0.00 0.00 0.00 0.00 0.00 0.00 0.00 0.00 0.00 0.00 0.00 0.00 0.00 0.00 0.00 0.00 0.02 0.01 0.02 0.02 0.04 0.02 0.01 0.00 0.00 0.00 0.00 0.00 0.00 0.00 0.00 0.00 0.00 0.00 0.00 0.00 0.00 0.00 0.00
0.00 0.00 0.00 0.00 0.00 0.00 0.00 0.00 0.00 0.00 0.00 0.00 0.00 0.00 0.00 0.00 0.00 0.00 0.00 0.01 0.01 0.00 0.01 0.00 0.00 0.03 0.04 0.03 0.00 0.00 0.00 0.00 0.00 0.00 0.00 0.00 0.00 0.00 0.00 0.00 0.00 0.00 0.00 0.00 0.00
0.00 0.00 0.00 0.00 0.00 0.00 0.00 0.00 0.00 0.00 0.00 0.00 0.00 0.00 0.00 0.00 0.00 0.00 0.00 0.01 0.00 0.00 0.00 0.00 0.02 0.02 0.03 0.03 0.00 0.00 0.00 0.00 0.00 0.00 0.00 0.00 0.00 0.00 0.00 0.00 0.00 0.00 0.00 0.00 0.00
0.00 0.00 0.00 0.00 0.00 0.00 0.00 0.00 0.00 0.00 0.00 0.00 0.00 0.00 0.00 0.00 0.00 0.00 0.00 0.00 0.01 0.01 0.01 0.00 0.01 0.01 0.02 0.01 0.00 0.00 0.00 0.00 0.00 0.00 0.00 0.00 0.00 0.00 0.00 0.00 0.00 0.00 0.00 0.00 0.00
0.00 0.00 0.00 0.00 0.00 0.00 0.00 0.00 0.00 0.00 0.00 0.00 0.00 0.00 0.00 0.00 0.00 0.00 0.00 0.00 0.00 0.00 0.00 0.00 0.00 0.00 0.00 0.00 0.00 0.00 0.00 0.00 0.00 0.00 0.00 0.00 0.00 0.00 0.00 0.00 0.00 0.00 0.00 0.00 0.00
0.00 0.00 0.00 0.00 0.00 0.00 0.00 0.00 0.00 0.00 0.00 0.00 0.00 0.00 0.00 0.00 0.00 0.00 0.00 0.00 0.00 0.00 0.00 0.00 0.00 0.00 0.00 0.00 0.00 0.00 0.00 0.00 0.00 0.00 0.00 0.00 0.00 0.00 0.00 0.00 0.00 0.00 0.00 0.00 0.00
0.00 0.00 0.00 0.00 0.00 0.00 0.00 0.00 0.00 0.00 0.00 0.00 0.00 0.00 0.00 0.00 0.00 0.00 0.00 0.00 0.00 0.02 0.02 0.01 0.00 0.00 0.00 0.00 0.00 0.00 0.00 0.00 0.00 0.00 0.00 0.00 0.00 0.00 0.00 0.00 0.00 0.00 0.00 0.00 0.00
0.00 0.00 0.00 0.00 0.00 0.00 0.00 0.00 0.00 0.00 0.00 0.00 0.01 0.01 0.01 0.01 0.00 0.00 0.00 0.00 0.00 0.01 0.01 0.01 0.00 0.00 0.00 0.00 0.00 0.00 0.00 0.00 0.00 0.00 0.00 0.00 0.00 0.00 0.00 0.00 0.00 0.00 0.00 0.00 0.00
0.00 0.00 0.00 0.00 0.00 0.00 0.00 0.00 0.00 0.00 0.00 0.00 0.00 0.01 0.01 0.02 0.00 0.01 0.00 0.01 0.03 0.06 0.01 0.00 0.00 0.00 0.00 0.00 0.00 0.00 0.00 0.00 0.00 0.00 0.00 0.00 0.00 0.00 0.00 0.00 0.00 0.00 0.00 0.00 0.00
0.00 0.00 0.00 0.00 0.00 0.00 0.00 0.00 0.00 0.00 0.00 0.00 0.00 0.02 0.03 0.00 0.00 0.03 0.04 0.04 0.08 0.05 0.01 0.00 0.00 0.00 0.00 0.00 0.00 0.00 0.00 0.00 0.00 0.00 0.00 0.00 0.00 0.00 0.00 0.00 0.00 0.00 0.00 0.00 0.00
0.00 0.00 0.00 0.00 0.00 0.00 0.00 0.00 0.00 0.00 0.00 0.00 0.00 0.03 0.01 0.00 0.00 0.01 0.02 0.04 0.03 0.06 0.02 0.01 0.00 0.00 0.00 0.00 0.00 0.00 0.00 0.00 0.00 0.00 0.00 0.00 0.00 0.00 0.00 0.00 0.00 0.00 0.00 0.00 0.00
0.00 0.00 0.00 0.00 0.00 0.00 0.00 0.00 0.00 0.00 0.00 0.00 0.00 0.01 0.00 0.00 0.01 0.00 0.00 0.00 0.03 0.04 0.03 0.01 0.01 0.00 0.00 0.00 0.00 0.00 0.00 0.00 0.00 0.00 0.00 0.00 0.00 0.00 0.00 0.00 0.00 0.00 0.00 0.00 0.00
0.00 0.00 0.00 0.00 0.00 0.00 0.00 0.00 0.00 0.00 0.00 0.00 0.00 0.01 0.01 0.01 0.00 0.00 0.00 0.00 0.01 0.03 0.05 0.04 0.02 0.00 0.01 0.00 0.00 0.00 0.00 0.00 0.00 0.00 0.00 0.00 0.00 0.00 0.00 0.00 0.00 0.00 0.00 0.00 0.00
0.00 0.00 0.00 0.00 0.00 0.00 0.00 0.00 0.00 0.00 0.00 0.00 0.00 0.00 0.00 0.00 0.01 0.00 0.00 0.00 0.00 0.01 0.01 0.02 0.04 0.03 0.03 0.01 0.00 0.00 0.00 0.00 0.00 0.00 0.00 0.00 0.00 0.00 0.01 0.00 0.00 0.00 0.00 0.00 0.00
0.00 0.00 0.00 0.00 0.00 0.00 0.00 0.00 0.00 0.00 0.00 0.00 0.00 0.00 0.00 0.00 0.00 0.00 0.00 0.00 0.00 0.00 0.00 0.02 0.01 0.01 0.01 0.02 0.00 0.00 0.00 0.00 0.00 0.00 0.00 0.00 0.00 0.00 0.00 0.00 0.00 0.01 0.00 0.00 0.00
MSLP
1019.24 1018.82 1018.33 1017.96 1017.59 1017.16 1016.80 1016.47 1016.15 1015.82 1015.53 1015.28 1015.07 1014.92 1014.81 1014.48 1014.21 1014.08 1013.69 1012.56 1012.30 1011.71 1011.51 1011.69 1011.59 1011.39 1011.32 1011.39 1011.19 1011.50 1011.91 1010.92 1009.83 1009.00 1007.49 1006.08 1005.58 1004.61 1003.96 1004.07 1004.17 1004.27 1004.23 1004.38 1005.09
1019.10 1018.62 1018.22 1017.80 1017.37 1016.91 1016.51 1016.13 1015.81 1015.58 1015.34 1015.02 1014.70 1014.50 1014.32 1014.19 1014.06 1013.36 1011.98 1011.83 1011.46 1010.92 1011.47 1011.75 1011.78 1011.44 1011.62 1011.36 1011.03 1011.10 1010.97 1010.41 1009.28 1008.13 1007.00 1006.11 1005.46 1004.55 1004.23 1004.08 1004.01 1004.12 1004.27 1004.68 1005.42
1019.05 1018.53 1018.04 1017.58 1017.13 1016.69 1016.28 1015.87 1015.58 1015.30 1015.08 1014.88 1014.59 1014.38 1014.19 1014.07 1013.97 1012.12 1011.05 1010.92 1011.05 1010.85 1011.00 1011.57 1011.82 1011.90 1011.73 1011.29 1010.86 1010.26 1010.25 1009.47 1008.64 1007.55 1006.79 1006.27 1005.42 1004.69 1004.33 1004.20 1003.78 1004.01 1004.35 1005.18 1005.75
1018.94 1018.45 1017.94 1017.45 1016.96 1016.50 1016.03 1015.65 1015.29 1015.03 1014.85 1014.68 1014.48 1014.33 1014.12 1014.22 1013.65 1011.35 1010.91 1010.93 1010.85 1010.40 1010.87 1011.64 1011.98 1012.21 1011.92 1011.19 1010.58 1010.38 1009.74 1009.10 1008.47 1007.62 1007.13 1006.61 1005.63 1005.02 1004.52 1003.77 1003.40 1003.72 1004.46 1004.91 1005.38
1018.81 1018.30 1017.81 1017.30 1016.78 1016.31 1015.90 1015.49 1015.14 1014.90 1014.76 1014.59 1014.44 1014.36 1014.36 1014.38 1013.03 1010.88 1010.95 1011.07 1010.86 1010.74 1011.04 1011.56 1012.13 1011.91 1012.02 1011.26 1010.66 1010.34 1009.52 1008.82 1008.19 1007.90 1007.56 1007.20 1006.52 1005.56 1004.62 1003.86 1003.50 1003.44 1004.08 1004.69 1005.24
1018.66 1018.08 1017.57 1017.03 1016.51 1016.06 1015.62 1015.28 1015.02 1014.77 1014.60 1014.44 1014.24 1014.32 1014.63 1013.86 1010.99 1010.80 1011.08 1011.07 1010.95 1010.95 1011.11 1011.19 1011.79 1011.82 1011.66 1011.27 1010.65 1009.87 1009.39 1008.98 1008.52 1007.93 1007.57 1007.41 1006.85 1006.17 1004.04 1003.68 1003.62 1003.40 1004.18 1004.59 1005.07
1018.46 1017.85 1017.30 1016.76 1016.18 1015.73 1015.36 1015.05 1014.76 1014.54 1014.46 1014.31 1014.33 1014.54 1014.70 1012.68 1010.99 1010.93 1011.13 1010.95 1010.78 1010.88 1010.89 1010.83 1010.86 1011.79 1011.31 1011.35 1010.41 1009.98 1009.58 1009.05 1008.38 1007.86 1007.80 1007.21 1006.88 1004.65 1004.29 1003.95 1003.81 1003.68 1004.66 1004.74 1004.99
1018.26 1017.66 1017.10 1016.49 1015.89 1015.39 1015.00 1014.71 1014.45 1014.24 1014.17 1014.26 1014.32 1014.59 1013.79 1011.42 1011.08 1010.85 1010.65 1010.49 1010.45 1010.63 1010.72 1010.45 1010.66 1011.31 1011.66 1011.14 1010.37 1010.01 1009.58 1009.16 1007.83 1007.54 1007.33 1007.36 1004.59 1004.60 1004.20 1004.38 1004.22 1003.81 1004.69 1005.07 1005.36
1017.94 1017.31 1016.75 1016.16 1015.59 1015.04 1014.68 1014.38 1013.90 1013.88 1014.02 1014.05 1014.46 1014.54 1012.57 1010.91 1010.76 1009.72 1009.98 1010.18 1010.03 1010.24 1010.68 1010.18 1010.84 1010.88 1011.23 1011.42 1011.01 1009.75 1009.19 1008.39 1007.43 1006.48 1006.97 1006.66 1005.37 1004.42 1003.78 1004.06 1004.22 1003.99 1004.69 1005.11 1005.72
1017.63 1017.00 1016.40 1015.84 1015.30 1014.79 1014.38 1014.02 1013.75 1013.86 1014.00 1014.16 1014.20 1014.50 1012.02 1010.18 1009.40 1009.34 1009.55 1009.82 1009.80 1009.83 1010.45 1010.23 1010.72 1010.44 1010.98 1010.86 1010.22 1009.57 1008.78 1007.80 1007.02 1006.18 1006.26 1005.89 1005.58 1004.54 1003.84 1003.91 1004.01 1004.02 1004.77 1005.16 1005.72
1017.27 1016.64 1015.99 1015.36 1014.87 1014.48 1014.25 1014.08 1014.21 1014.07 1013.86 1013.03 1012.71 1012.18 1010.63 1009.75 1008.79 1008.97 1009.26 1009.49 1009.55 1009.63 1009.69 1009.76 1010.43 1009.75 1010.10 1010.12 1009.42 1008.92 1008.15 1007.30 1006.74 1005.64 1005.78 1005.89 1006.06 1004.84 1004.18 1004.21 1004.24 1004.24 1004.95 1005.46 1005.89
1017.00 1016.21 1015.45 1014.85 1014.33 1014.04 1014.09 1013.79 1012.68 1012.50 1012.59 1011.77 1011.71 1011.33 1010.31 1010.16 1009.66 1008.80 1008.91 1009.45 1009.30 1009.51 1009.60 1010.14 1009.76 1009.70 1009.42 1009.60 1009.06 1008.60 1008.20 1006.92 1005.96 1005.39 1005.60 1005.83 1005.69 1005.36 1004.57 1004.27 1004.04 1004.05 1004.86 1005.60 1006.09
1016.52 1015.68 1014.92 1014.34 1013.94 1014.07 1013.81 1012.94 1012.00 1012.03 1012.81 1011.05 1010.38 1009.91 1009.33 1009.56 1009.44 1008.73 1008.83 1008.84 1008.95 1009.28 1009.53 1010.03 1009.59 1009.13 1008.80 1008.74 1008.53 1007.99 1007.63 1006.96 1006.27 1005.54 1005.45 1005.61 1005.64 1005.28 1004.70 1004.57 1004.14 1004.00 1004.42 1005.08 1005.24
1016.20 1015.27 1014.44 1013.90 1013.84 1013.59 1013.05 1012.06 1012.08 1012.23 1012.64 1010.92 1009.70 1008.74 1008.83 1008.95 1008.98 1008.46 1008.46 1008.96 1008.72 1008.95 1009.21 1009.23 1008.85 1008.53 1008.11 1007.99 1007.89 1007.56 1006.98 1006.84 1006.40 1005.94 1005.81 1005.32 1005.88 1005.32 1004.88 1005.02 1004.68 1004.20 1004.22 1004.97 1005.34
1015.62 1014.88 1014.13 1013.74 1013.56 1013.35 1012.53 1012.24 1012.35 1012.70 1012.50 1010.32 1009.06 1007.94 1008.16 1008.75 1008.48 1008.56 1008.37 1008.56 1008.54 1008.47 1009.02 1008.26 1007.93 1008.42 1007.83 1006.96 1006.75 1006.56 1006.30 1006.50 1006.27 1006.14 1005.94 1005.90 1005.93 1005.11 1005.10 1005.33 1004.68 1004.29 1004.21 1004.31 1004.88
1014.73 1014.14 1013.64 1013.61 1013.69 1012.70 1012.40 1012.44 1012.79 1013.42 1011.96 1010.52 1009.30 1008.49 1008.51 1008.30 1008.54 1008.51 1008.32 1008.49 1008.30 1008.21 1008.12 1007.61 1007.40 1007.28 1006.71 1005.92 1005.69 1005.70 1006.15 1006.42 1006.68 1006.86 1006.77 1005.94 1005.63 1004.96 1004.35 1003.39 1004.03 1004.08 1004.44 1004.55 1004.85
1014.27 1013.50 1013.26 1012.99 1012.83 1012.34 1012.64 1013.08 1013.49 1013.40 1012.28 1011.02 1009.73 1008.96 1008.93 1008.62 1008.58 1008.65 1008.46 1008.43 1008.41 1008.24 1007.92 1007.16 1006.65 1005.88 1005.49 1005.35 1005.19 1005.60 1006.21 1007.11 1007.73 1007.72 1007.13 1006.07 1005.51 1003.84 1003.07 1003.03 1003.13 1003.55 1003.93 1004.48 1004.86
1014.02 1013.14 1012.84 1012.49 1012.31 1012.48 1012.99 1013.32 1013.66 1013.40 1012.63 1011.32 1010.28 1009.12 1008.98 1008.93 1008.59 1008.57 1008.39 1008.17 1007.72 1007.98 1007.76 1007.08 1006.31 1005.46 1004.75 1004.68 1005.08 1005.48 1006.10 1006.52 1007.08 1007.49 1007.23 1006.30 1005.24 1003.28 1002.59 1002.30 1002.60 1002.89 1003.12 1004.21 1004.88
1013.88 1013.10 1012.83 1012.14 1012.00 1012.54 1013.18 1014.00 1014.05 1013.16 1012.29 1011.44 1010.16 1009.51 1008.94 1009.22 1009.42 1008.52 1008.15 1007.70 1007.11 1007.23 1007.51 1006.65 1005.70 1004.66 1004.25 1004.00 1004.48 1005.15 1005.65 1005.98 1006.83 1007.16 1006.81 1006.24 1004.89 1003.39 1002.69 1002.78 1003.04 1003.27 1003.60 1003.96 1004.43
1015.17 1014.38 1013.07 1012.06 1011.86 1012.34 1013.59 1014.38 1013.74 1012.64 1011.96 1011.63 1011.08 1010.34 1009.71 1009.30 1009.16 1008.50 1007.74 1006.86 1006.50 1006.23 1006.43 1006.11 1005.43 1004.52 1004.36 1003.96 1004.22 1004.42 1005.01 1006.10 1006.76 1007.28 1007.13 1006.49 1005.44 1004.36 1003.91 1003.54 1003.58 1003.76 1003.86 1003.88 1004.25
1015.57 1014.70 1012.94 1012.24 1012.17 1013.45 1014.83 1014.89 1013.72 1012.24 1011.90 1011.70 1011.30 1010.75 1010.13 1009.68 1009.01 1008.07 1007.40 1006.73 1006.46 1005.95 1005.80 1005.81 1005.70 1005.07 1004.43 1003.98 1004.09 1004.62 1005.19 1006.03 1006.60 1007.17 1006.86 1006.63 1005.90 1004.71 1004.45 1004.68 1004.38 1004.06 1003.45 1003.63 1003.85
1017.03 1015.78 1013.55 1012.46 1013.98 1015.90 1016.06 1015.57 1014.17 1012.79 1012.20 1011.87 1011.56 1011.06 1010.80 1010.02 1009.06 1008.26 1007.29 1006.69 1006.65 1006.63 1005.91 1005.40 1005.31 1004.93 1004.08 1003.42 1003.14 1003.72 1004.60 1005.46 1006.35 1007.24 1007.06 1006.73 1005.78 1004.90 1004.51 1004.33 1004.68 1004.39 1003.99 1003.78 1003.64
1018.60 1017.44 1014.62 1014.10 1016.71 1017.62 1016.98 1016.02 1015.08 1014.06 1013.16 1012.47 1012.14 1011.64 1011.19 1010.48 1009.93 1008.45 1007.50 1006.75 1006.54 1006.42 1005.83 1005.14 1005.27 1005.33 1004.42 1003.92 1003.60 1003.76 1004.34 1004.86 1005.52 1006.44 1006.85 1006.65 1005.65 1004.90 1004.52 1004.17 1004.04 1003.94 1003.69 1003.50 1004.00
1019.28 1019.04 1017.88 1017.95 1018.62 1018.86 1018.47 1017.34 1016.23 1014.92 1014.14 1013.67 1012.80 1012.00 1011.94 1011.26 1010.27 1009.20 1008.58 1007.37 1006.90 1006.38 1005.60 1005.37 1005.39 1005.41 1005.18 1004.15 1003.87 1003.83 1003.94 1004.51 1005.07 1006.06 1006.38 1006.22 1005.34 1004.59 1004.63 1004.50 1003.78 1003.50 1003.20 1003.41 1003.85
1020.50 1021.77 1021.52 1020.42 1019.82 1019.86 1019.24 1018.22 1017.34 1016.56 1015.34 1014.54 1013.62 1013.47 1013.20 1012.09 1010.91 1009.53 1009.11 1008.69 1007.74 1007.13 1006.58 1006.58 1006.12 1005.64 1005.12 1004.16 1003.74 1003.38 1003.50 1003.95 1004.36 1004.73 1005.24 1005.27 1005.15 1005.03 1005.19 1005.15 1004.85 1004.22 1004.06 1004.16 1004.42
1022.18 1022.72 1022.06 1021.35 1020.84 1020.31 1019.51 1018.86 1018.28 1017.65 1017.14 1015.55 1015.03 1014.30 1013.47 1012.81 1012.21 1010.95 1010.53 1010.48 1009.28 1007.85 1007.95 1007.60 1007.05 1006.06 1004.92 1003.96 1003.59 1003.31 1003.00 1003.21 1003.63 1004.12 1004.44 1004.82 1005.00 1005.28 1005.87 1006.08 1005.94 1005.78 1005.59 1005.23 1005.18
1022.90 1022.88 1022.60 1021.57 1021.20 1020.76 1020.11 1019.46 1018.80 1018.25 1016.92 1016.24 1015.64 1014.87 1013.41 1012.47 1011.90 1010.80 1010.32 1010.16 1009.79 1009.75 1009.05 1008.70 1007.86 1006.79 1005.76 1004.62 1004.00 1003.60 1002.55 1002.75 1002.92 1003.22 1003.84 1004.63 1004.94 1005.63 1006.51 1007.22 1007.56 1007.69 1007.41 1007.38 1007.42
Thickness
5671 5671 5671 5669 5667 5666 5663 5659 5654 5649 5644 5638 5632 5625 5618 5614 5610 5606 5604 5613 5614 5621 5632 5633 5639 5645 5651 5655 5665 5665 5654 5661 5688 5700 5723 5748 5751 5770 5783 5781 5787 5796 5804 5815 5816
5669 5668 5666 5665 5664 5661 5658 5653 5648 5642 5634 5627 5620 5612 5606 5600 5598 5598 5610 5608 5607 5611 5612 5613 5620 5628 5628 5640 5649 5650 5645 5666 5689 5708 5720 5737 5745 5759 5764 5770 5778 5789 5802 5807 5808
5666 5664 5663 5661 5659 5656 5652 5647 5640 5633 5625 5616 5608 5599 5593 5590 5584 5599 5606 5602 5599 5600 5599 5599 5601 5609 5614 5625 5637 5648 5649 5669 5689 5705 5717 5724 5736 5754 5755 5755 5775 5781 5790 5793 5799
5662 5660 5658 5656 5653 5650 5645 5639 5633 5625 5615 5606 5598 5588 5582 5578 5593 5595 5593 5589 5588 5591 5588 5582 5583 5589 5597 5611 5626 5632 5645 5662 5679 5695 5704 5710 5729 5737 5747 5762 5780 5787 5792 5793 5796
5659 5657 5654 5651 5648 5643 5637 5631 5624 5616 5606 5596 5585 5577 5571 5559 5564 5585 5579 5575 5573 5574 5570 5567 5564 5574 5580 5595 5611 5618 5636 5651 5667 5677 5686 5700 5708 5721 5738 5759 5772 5780 5788 5791 5793
5655 5653 5650 5647 5643 5638 5632 5625 5617 5608 5597 5587 5578 5568 5559 5551 5578 5573 5565 5561 5559 5555 5552 5550 5549 5556 5568 5581 5595 5613 5624 5635 5650 5666 5679 5686 5696 5710 5743 5756 5763 5775 5774 5783 5788
5652 5650 5647 5643 5639 5634 5626 5618 5611 5601 5589 5579 5569 5558 5548 5550 5567 5562 5553 5549 5546 5541 5540 5540 5541 5540 5556 5565 5585 5598 5606 5619 5638 5656 5663 5679 5681 5718 5736 5744 5750 5762 5762 5772 5780
5648 5646 5643 5640 5635 5630 5622 5613 5605 5595 5583 5571 5560 5550 5543 5563 5558 5551 5546 5540 5533 5527 5524 5529 5529 5529 5536 5552 5572 5581 5592 5594 5629 5652 5662 5671 5697 5713 5726 5728 5738 5752 5756 5763 5772
5646 5644 5640 5636 5631 5626 5618 5609 5601 5589 5576 5565 5551 5540 5537 5557 5551 5550 5539 5530 5522 5511 5504 5514 5517 5523 5529 5533 5545 5570 5575 5598 5627 5653 5655 5668 5683 5707 5722 5724 5730 5742 5749 5757 5762
5644 5641 5637 5633 5628 5621 5615 5606 5594 5581 5570 5555 5545 5533 5545 5559 5553 5544 5530 5518 5508 5499 5493 5504 5507 5510 5514 5532 5550 5567 5581 5598 5618 5639 5656 5663 5673 5695 5714 5717 5726 5736 5741 5750 5756
5642 5639 5635 5632 5626 5618 5609 5599 5590 5578 5563 5561 5558 5551 5555 5551 5548 5537 5522 5510 5500 5491 5490 5501 5494 5515 5524 5537 5554 5565 5581 5594 5615 5641 5644 5651 5656 5680 5702 5708 5714 5727 5732 5741 5747
5640 5637 5635 5631 5625 5616 5604 5597 5594 5584 5565 5564 5554 5547 5548 5540 5531 5531 5520 5507 5501 5491 5492 5488 5501 5516 5527 5535 5548 5559 5571 5590 5619 5633 5643 5638 5648 5670 5687 5701 5714 5725 5726 5732 5736
5640 5638 5635 5630 5623 5610 5601 5597 5592 5581 5552 5564 5563 5556 5555 5543 5531 5527 5519 5513 5505 5498 5496 5489 5508 5520 5530 5537 5545 5559 5569 5587 5605 5625 5638 5637 5643 5661 5684 5696 5709 5723 5728 5733 5741
5639 5638 5635 5629 5621 5610 5602 5600 5586 5575 5538 5562 5563 5561 5554 5545 5532 5532 5524 5512 5509 5504 5502 5507 5516 5523 5531 5539 5548 5552 5576 5588 5599 5607 5609 5640 5617 5652 5673 5680 5695 5713 5724 5729 5737
5640 5638 5635 5625 5618 5609 5605 5594 5581 5563 5534 5566 5561 5568 5558 5545 5541 5531 5529 5518 5515 5518 5513 5521 5525 5520 5531 5550 5560 5564 5584 5587 5597 5606 5613 5626 5624 5648 5663 5668 5691 5708 5719 5729 5736
5643 5640 5634 5625 5613 5610 5600 5587 5571 5543 5541 5556 5559 5555 5550 5549 5540 5534 5531 5524 5525 5525 5525 5529 5533 5532 5544 5561 5573 5582 5581 5585 5584 5589 5592 5621 5628 5642 5660 5698 5698 5708 5714 5723 5730
5643 5641 5633 5624 5619 5608 5594 5576 5551 5524 5558 5552 5554 5555 5549 5548 5544 5537 5532 5527 5524 5528 5528 5540 5541 5551 5560 5563 5575 5574 5567 5556 5567 5575 5588 5616 5633 5651 5685 5696 5704 5709 5713 5718 5724
5641 5640 5632 5623 5615 5603 5586 5569 5549 5554 5545 5553 5551 5554 5549 5549 5548 5542 5537 5531 5535 5534 5529 5535 5539 5553 5567 5571 5566 5569 5571 5562 5579 5572 5589 5617 5625 5657 5686 5699 5705 5711 5718 5715 5718
5639 5636 5630 5623 5614 5598 5579 5548 5544 5549 5549 5545 5551 5551 5556 5547 5536 5545 5541 5545 5550 5543 5537 5538 5548 5568 5571 5581 5582 5577 5576 5592 5580 5590 5599 5610 5638 5665 5683 5690 5695 5701 5709 5713 5717
5623 5619 5622 5619 5610 5594 5569 5556 5550 5553 5548 5542 5537 5543 5541 5544 5542 5546 5547 5557 5558 5557 5554 5555 5553 5571 5574 5585 5586 5587 5595 5585 5579 5588 5601 5607 5626 5641 5663 5679 5688 5693 5703 5710 5715
5616 5619 5619 5613 5604 5578 5541 5545 5549 5555 5548 5538 5533 5534 5539 5539 5546 5551 5554 5562 5561 5564 5561 5563 5557 5567 5575 5576 5575 5580 5579 5583 5584 5585 5594 5598 5614 5641 5653 5661 5673 5687 5703 5710 5713
5600 5609 5610 5609 5574 5538 5539 5538 5544 5548 5543 5536 5531 5530 5529 5536 5542 5548 5555 5561 5561 5556 5562 5567 5561 5561 5576 5591 5598 5596 5591 5588 5578 5592 5592 5598 5615 5642 5653 5663 5668 5677 5694 5702 5708
5583 5579 5597 5591 5544 5529 5530 5531 5534 5533 5530 5531 5525 5528 5530 5531 5527 5546 5552 5563 5563 5561 5567 5574 5562 5554 5568 5582 5595 5594 5594 5593 5591 5587 5591 5597 5615 5642 5654 5664 5673 5678 5687 5700 5699
5574 5566 5561 5546 5533 5525 5513 5514 5516 5520 5516 5514 5518 5522 5516 5518 5531 5538 5542 5558 5561 5566 5575 5573 5567 5562 5555 5574 5584 5588 5597 5595 5592 5581 5592 5599 5623 5638 5645 5656 5673 5681 5689 5692 5693
5556 5538 5528 5522 5525 5507 5504 5504 5500 5495 5500 5502 5508 5501 5496 5505 5519 5538 5541 5541 5555 5560 5562 5559 5566 5572 5573 5585 5588 5596 5600 5597 5601 5604 5602 5613 5621 5632 5639 5650 5658 5672 5676 5680 5683
5545 5530 5523 5516 5509 5505 5498 5492 5487 5485 5479 5488 5485 5488 5492 5504 5506 5518 5520 5523 5536 5553 5548 5551 5561 5568 5576 5591 5589 5593 5600 5602 5607 5605 5612 5613 5621 5630 5630 5633 5640 5650 5661 5667 5673
5534 5526 5523 5518 5506 5498 5490 5483 5481 5474 5482 5478 5477 5479 5497 5497 5503 5512 5519 5524 5531 5529 5539 5542 5552 5562 5571 5580 5585 5577 5598 5604 5613 5617 5615 5607 5620 5622 5622 5618 5621 5625 5632 5640 5646